Location: Dillon
(41.1766°N, 107.0923°W)
Time: 22:43:28
(UTC+00:00)

SJ-7 - Pass Details

Date: 09 December 2022
Orbit: 549 x 592 km, 97.7° (Epoch: 08 February)

Event Time Altitude Azimuth Distance (km) Brightness Sun altitude
Rises 13:43:35 0° 359° (N) 2,733 7.6 -7.3°
Reaches altitude 10° 13:45:59 10° 346° (NNW) 1,838 6.6 -6.9°
Maximum altitude 13:49:13 25° 291° (WNW) 1,157 5.4 -6.3°
Drops below altitude 10° 13:52:28 10° 236° (SW) 1,841 6.7 -5.8°
Sets 13:54:52 0° 223° (SW) 2,740 7.7 -5.4°
